Change the Weather History Date:

Thursday, November 8, 2012

  Actual Average Record
Temperature  
Mean Temperature 57 °F -  
Max Temperature 68 °F 52 °F 70 °F (2006)
Min Temperature 46 °F 32 °F 12 °F (1945)
Degree Days  
Heating Degree Days 8    
Growing Degree Days 7 (Base 50)    
Moisture  
Dew Point 26 °F    
Average Humidity 32    
Maximum Humidity 50    
Minimum Humidity 17    
Precipitation  
Precipitation 0.00 in - - ()
Sea Level Pressure  
Sea Level Pressure 29.58 in    
Wind  
Wind Speed 14 mph (South)    
Max Wind Speed 26 mph    
Max Gust Speed 36 mph    
Visibility 10 miles    
Events      
Averages and records for this station are not official NWS values.
T = Trace of Precipitation, MM = Missing Value Source: NWS Daily Summary

Daily Weather History Graph

Daily Weather History Graph

Search for Another Location

Airport or City:

Trip Planner

Search our weather history database for the weather conditions in past years. The results will help you decide how hot, cold, wet, or windy it might be!

Date:

Astronomy

Nov. 08, 2012 Rise Set
Actual Time 7:08 AM MST 5:14 PM MST
Civil Twilight 6:39 AM MST 5:44 PM MST
Nautical Twilight 6:06 AM MST 6:16 PM MST
Astronomical Twilight 5:33 AM MST 6:49 PM MST
Moon 1:04 AM MST (11/8) 2:00 PM MST (11/8)
Length of Visible Light 11h 04m
Length of Day
10h 06m
Waning Crescent, 32% of the Moon is Illuminated
Nov 8
Waning Crescent
Nov 13
New
Nov 20
First Quarter
Nov 28
Full
Dec 6
Last Quarter

Hourly Weather History & Observations

Time (MST) Temp. Windchill Dew Point Humidity Pressure Visibility Wind Dir Wind Speed Gust Speed Precip Events Conditions
12:53 AM 48.0 °F - 28.9 °F 48% 29.77 in 10.0 mi South 11.5 mph - N/A   Clear
1:53 AM 48.0 °F - 28.0 °F 46% 29.75 in 10.0 mi South 11.5 mph - N/A   Clear
2:53 AM 46.0 °F 41.9 °F 28.0 °F 50% 29.74 in 10.0 mi SSE 8.1 mph - N/A   Clear
3:53 AM 46.9 °F - 27.0 °F 46% 29.70 in 10.0 mi South 10.4 mph - N/A   Clear
4:53 AM 46.0 °F 41.4 °F 27.0 °F 47% 29.70 in 10.0 mi South 9.2 mph - N/A   Clear
5:53 AM 48.0 °F - 27.0 °F 44% 29.69 in 10.0 mi South 11.5 mph - N/A   Clear
6:53 AM 46.0 °F 40.6 °F 27.0 °F 47% 29.71 in 10.0 mi South 11.5 mph - N/A   Clear
7:53 AM 48.0 °F - 27.0 °F 44% 29.70 in 10.0 mi SSE 12.7 mph - N/A   Clear
8:53 AM 53.1 °F - 28.9 °F 40% 29.67 in 10.0 mi South 6.9 mph - N/A   Clear
9:53 AM 63.0 °F - 28.0 °F 27% 29.63 in 10.0 mi South 19.6 mph 26.5 mph N/A   Clear
10:53 AM 64.9 °F - 26.1 °F 23% 29.61 in 10.0 mi South 26.5 mph 35.7 mph N/A   Clear
11:53 AM 66.9 °F - 27.0 °F 22% 29.59 in 10.0 mi SSW 13.8 mph 26.5 mph N/A   Clear
12:53 PM 68.0 °F - 27.0 °F 21% 29.56 in 10.0 mi SSW 16.1 mph 29.9 mph N/A   Clear
1:53 PM 64.9 °F - 26.1 °F 23% 29.53 in 10.0 mi SSW 15.0 mph 23.0 mph N/A   Clear
2:53 PM 68.0 °F - 23.0 °F 18% 29.51 in 10.0 mi SW 15.0 mph - N/A   Clear
3:53 PM 68.0 °F - 21.9 °F 17% 29.47 in 10.0 mi SSW 9.2 mph - N/A   Clear
4:53 PM 64.9 °F - 24.1 °F 21% 29.44 in 10.0 mi South 21.9 mph 29.9 mph N/A   Clear
5:53 PM 63.0 °F - 21.9 °F 21% 29.44 in 10.0 mi South 19.6 mph 34.5 mph N/A   Clear
6:53 PM 62.1 °F - 19.9 °F 20% 29.45 in 10.0 mi South 23.0 mph 29.9 mph N/A   Clear
7:53 PM 61.0 °F - 21.0 °F 21% 29.44 in 10.0 mi South 23.0 mph 29.9 mph N/A   Clear
8:53 PM 60.1 °F - 23.0 °F 24% 29.44 in 10.0 mi South 17.3 mph 32.2 mph N/A   Clear
9:53 PM 59.0 °F - 27.0 °F 29% 29.43 in 10.0 mi South 21.9 mph 31.1 mph N/A   Partly Cloudy
10:53 PM 59.0 °F - 28.0 °F 31% 29.42 in 10.0 mi South 21.9 mph 28.8 mph N/A   Clear
11:53 PM 59.0 °F - 28.9 °F 32% 29.41 in 10.0 mi South 19.6 mph 33.4 mph N/A   Clear